Location: Piotrkow Trybunalski
(51.4000°N, 19.6830°E)
Time: 15:30:39
(UTC+01:00)

Vanguard 2 - Pass Details

Date: 07 February 2023
Orbit: 553 x 2927 km, 32.9° (Epoch: 24 March)

Event Time Altitude Azimuth Distance (km) Brightness Sun altitude
Rises 20:52:07 0° 228° (SW) 4,996 11.9 -38.6°
Reaches altitude 10° 20:55:28 10° 219° (SW) 4,323 11.4 -39.1°
Enters shadow 21:01:07 27° 194° (SSW) 3,611 10.7 -39.9°
Maximum altitude 21:06:07 33° 162° (SSE) 3,589 - -40.5°
Drops below altitude 10° 21:20:06 10° 108° (ESE) 5,712 - -42.4°
Sets 21:25:22 0° 100° (E) 6,783 - -43.0°
